Weather History for KCEU - March, 2013

Change the Weather History Date:

Thursday, March 28, 2013

  Actual Average Record
Temperature  
Mean Temperature 47 °F -  
Max Temperature 64 °F - - ()
Min Temperature 30 °F - - ()
Degree Days  
Heating Degree Days 18    
Moisture  
Dew Point 18 °F    
Average Humidity 37    
Maximum Humidity 82    
Minimum Humidity 10    
Precipitation  
Precipitation 0.00 in - - ()
Sea Level Pressure  
Sea Level Pressure 30.26 in    
Wind  
Wind Speed 4 mph (NW)    
Max Wind Speed 13 mph    
Max Gust Speed 21 mph    
Visibility 10 miles    
Events      
T = Trace of Precipitation, MM = Missing Value Source: NWS Daily Summary

Daily Weather History Graph

Daily Weather History Graph

Search for Another Location

Airport or City:

Trip Planner

Search our weather history database for the weather conditions in past years. The results will help you decide how hot, cold, wet, or windy it might be!

Date:

Astronomy

Mar. 28, 2013 Rise Set
Actual Time 7:23 AM EDT 7:49 PM EDT
Civil Twilight 6:58 AM EDT 8:15 PM EDT
Nautical Twilight 6:28 AM EDT 8:44 PM EDT
Astronomical Twilight 5:58 AM EDT 9:14 PM EDT
Moon 9:34 PM EDT 7:55 AM EDT
Length of Visible Light 13h 16m
Length of Day
12h 26m
Full, 98% of the Moon is Illuminated
Mar 28
Full
Apr 3
Last Quarter
Apr 10
New
Apr 18
First Quarter
Apr 25
Full

Hourly Weather History & Observations

Time (EDT) Temp. Windchill Dew Point Humidity Pressure Visibility Wind Dir Wind Speed Gust Speed Precip Events Conditions
12:54 AM 45.0 °F 41.8 °F 19.0 °F 36% 30.25 in 10.0 mi WNW 5.8 mph - N/A   Clear
1:54 AM 44.1 °F - 19.0 °F 37% 30.25 in 10.0 mi Calm Calm - N/A   Clear
2:54 AM 39.0 °F - 24.1 °F 55% 30.26 in 10.0 mi Calm Calm - N/A   Clear
3:54 AM 37.0 °F - 28.0 °F 70% 30.26 in 10.0 mi Calm Calm - N/A   Clear
4:54 AM 36.0 °F - 26.1 °F 67% 30.26 in 10.0 mi Calm Calm - N/A   Clear
5:54 AM 36.0 °F 33.3 °F 27.0 °F 70% 30.27 in 10.0 mi South 3.5 mph - N/A   Clear
6:54 AM 33.1 °F - 27.0 °F 78% 30.29 in 10.0 mi Calm Calm - N/A   Clear
7:54 AM 30.9 °F - 26.1 °F 82% 30.32 in 10.0 mi Calm Calm - N/A   Clear
8:54 AM 37.9 °F - 27.0 °F 65% 30.33 in 10.0 mi Calm Calm - N/A   Clear
9:54 AM 44.1 °F 42.5 °F 24.1 °F 45% 30.33 in 10.0 mi Variable 3.5 mph - N/A   Clear
10:54 AM 48.9 °F - 19.0 °F 31% 30.32 in 10.0 mi NNW 5.8 mph - N/A   Clear
11:54 AM 52.0 °F - 18.0 °F 26% 30.31 in 10.0 mi Calm Calm - N/A   Clear
12:54 PM 54.0 °F - 19.0 °F 25% 30.29 in 10.0 mi Variable 5.8 mph - N/A   Clear
1:54 PM 57.0 °F - 17.1 °F 21% 30.26 in 10.0 mi WSW 8.1 mph - N/A   Clear
2:54 PM 60.1 °F - 18.0 °F 20% 30.22 in 10.0 mi SSE 8.1 mph - N/A   Clear
3:54 PM 64.9 °F - 7.0 °F 10% 30.19 in 10.0 mi North 10.4 mph 20.7 mph N/A   Clear
4:54 PM 64.0 °F - 7.0 °F 11% 30.17 in 10.0 mi NW 11.5 mph 19.6 mph N/A   Clear
5:54 PM 63.0 °F - 9.0 °F 12% 30.18 in 10.0 mi NW 12.7 mph - N/A   Clear
6:54 PM 61.0 °F - 7.0 °F 12% 30.20 in 10.0 mi NW 10.4 mph 18.4 mph N/A   Clear
7:54 PM 57.9 °F - 9.0 °F 14% 30.22 in 10.0 mi NW 9.2 mph - N/A   Clear
8:54 PM 55.9 °F - 12.0 °F 18% 30.25 in 10.0 mi NNW 6.9 mph 18.4 mph N/A   Clear
9:54 PM 53.1 °F - 15.1 °F 22% 30.27 in 10.0 mi North 4.6 mph - N/A   Clear
10:54 PM 51.1 °F - 18.0 °F 27% 30.29 in 10.0 mi Calm Calm - N/A   Clear
11:54 PM 50.0 °F - 19.0 °F 29% 30.30 in 10.0 mi Calm Calm - N/A   Clear